ARG1473 SASJ-SABE

Flight info

Callsign ARG1473
Flight time 1h 46m
Altitude 37000
Route ASODO2G ASODO UT672 MULTA UW24 SNT
Aircraft B738/M-SDE2E3FGHIRWXY/LB1

Departure

Time 2026-04-26 21:06
Airport Gobernador Horacio Guzman International Airport (SASJ)

Arrival

Time 2026-04-26 22:53
Airport Aeroparque Jorge Newbery (SABE)
Time Latitude Longitude Altitude Speed Heading
2026-04-26 20:44 -24.38637 -65.09450 3022 ft 0 kts 105°
2026-04-26 20:56 -24.38637 -65.09452 3021 ft 2 kts 104°
2026-04-26 20:56 -24.38635 -65.09470 3022 ft 2 kts 79°
2026-04-26 20:57 -24.38642 -65.09486 3027 ft 2 kts 33°
2026-04-26 20:57 -24.38658 -65.09491 3027 ft 2 kts 346°
2026-04-26 20:57 -24.38663 -65.09489 3028 ft 0 kts 331°
2026-04-26 20:59 -24.38663 -65.09490 3028 ft 1 kts 330°
2026-04-26 21:00 -24.38654 -65.09495 3028 ft 2 kts 329°
2026-04-26 21:00 -24.38644 -65.09502 3029 ft 2 kts 329°
2026-04-26 21:00 -24.38626 -65.09512 3027 ft 5 kts 333°
2026-04-26 21:00 -24.38577 -65.09541 3026 ft 11 kts 331°
2026-04-26 21:01 -24.38562 -65.09604 3033 ft 10 kts 243°
2026-04-26 21:01 -24.38597 -65.09670 3043 ft 10 kts 240°
2026-04-26 21:01 -24.38632 -65.09734 3053 ft 10 kts 240°
2026-04-26 21:01 -24.38665 -65.09797 3060 ft 9 kts 239°
2026-04-26 21:02 -24.38698 -65.09858 3068 ft 9 kts 239°
2026-04-26 21:02 -24.38686 -65.09919 3072 ft 10 kts 320°
2026-04-26 21:02 -24.38614 -65.09964 3073 ft 15 kts 330°
2026-04-26 21:02 -24.38508 -65.10032 3071 ft 20 kts 330°
2026-04-26 21:03 -24.38382 -65.10111 3070 ft 21 kts 330°
2026-04-26 21:03 -24.38259 -65.10187 3070 ft 20 kts 330°
2026-04-26 21:03 -24.38140 -65.10262 3072 ft 19 kts 330°
2026-04-26 21:03 -24.38032 -65.10331 3073 ft 17 kts 329°
2026-04-26 21:04 -24.38014 -65.10416 3070 ft 13 kts 238°
2026-04-26 21:04 -24.38032 -65.10440 3074 ft 0 kts 223°
2026-04-26 21:05 -24.38040 -65.10448 3074 ft 5 kts 218°
2026-04-26 21:05 -24.38103 -65.10464 3074 ft 14 kts 188°
2026-04-26 21:05 -24.38226 -65.10438 3076 ft 31 kts 151°
2026-04-26 21:05 -24.38630 -65.10185 3073 ft 101 kts 150°
2026-04-26 21:06 -24.39422 -65.09688 3095 ft 160 kts 150°
2026-04-26 21:06 -24.40487 -65.09025 3430 ft 184 kts 148°
2026-04-26 21:06 -24.41641 -65.08311 4129 ft 196 kts 150°
2026-04-26 21:06 -24.42831 -65.07614 4955 ft 197 kts 153°
2026-04-26 21:07 -24.44072 -65.06956 5730 ft 199 kts 153°
2026-04-26 21:07 -24.45308 -65.06265 6448 ft 203 kts 152°
2026-04-26 21:07 -24.46584 -65.05520 6915 ft 213 kts 153°
2026-04-26 21:07 -24.47921 -65.04763 7419 ft 220 kts 153°
2026-04-26 21:08 -24.49345 -65.03964 7692 ft 241 kts 153°
2026-04-26 21:08 -24.50901 -65.03116 8074 ft 256 kts 153°
2026-04-26 21:08 -24.52562 -65.02171 8409 ft 278 kts 152°
2026-04-26 21:08 -24.54293 -65.01161 9162 ft 284 kts 149°
2026-04-26 21:09 -24.55867 -64.99891 10002 ft 286 kts 140°
2026-04-26 21:09 -24.57253 -64.98272 10523 ft 301 kts 127°
2026-04-26 21:09 -24.58478 -64.96279 10698 ft 327 kts 123°
2026-04-26 21:09 -24.59736 -64.94119 11125 ft 341 kts 123°
2026-04-26 21:10 -24.61058 -64.91917 11745 ft 349 kts 124°
2026-04-26 21:10 -24.62425 -64.89692 12383 ft 355 kts 124°
2026-04-26 21:10 -24.64031 -64.87613 12978 ft 361 kts 141°
2026-04-26 21:10 -24.66181 -64.86183 13643 ft 363 kts 154°
2026-04-26 21:11 -24.68463 -64.84943 14219 ft 368 kts 155°
2026-04-26 21:11 -24.70754 -64.83737 14787 ft 372 kts 156°
2026-04-26 21:11 -24.73100 -64.82501 15387 ft 376 kts 156°
2026-04-26 21:11 -24.75467 -64.81242 15978 ft 379 kts 156°
2026-04-26 21:12 -24.77851 -64.79961 16580 ft 383 kts 156°
2026-04-26 21:12 -24.80254 -64.78661 17143 ft 387 kts 157°
2026-04-26 21:12 -24.82681 -64.77341 17720 ft 391 kts 157°
2026-04-26 21:12 -24.85130 -64.76006 18302 ft 395 kts 158°
2026-04-26 21:13 -24.87599 -64.74658 18783 ft 399 kts 158°
2026-04-26 21:13 -24.90065 -64.73312 19255 ft 403 kts 158°
2026-04-26 21:13 -24.92585 -64.71936 19771 ft 406 kts 159°
2026-04-26 21:13 -24.95123 -64.70548 20264 ft 410 kts 159°
2026-04-26 21:14 -24.97691 -64.69145 20705 ft 414 kts 159°
2026-04-26 21:14 -25.00288 -64.67726 21134 ft 419 kts 160°
2026-04-26 21:14 -25.02910 -64.66292 21610 ft 422 kts 160°
2026-04-26 21:14 -25.05550 -64.64849 22090 ft 425 kts 160°
2026-04-26 21:15 -25.08206 -64.63395 22551 ft 428 kts 161°
2026-04-26 21:15 -25.10885 -64.61927 23000 ft 432 kts 161°
2026-04-26 21:15 -25.13549 -64.60467 23427 ft 435 kts 161°
2026-04-26 21:15 -25.16274 -64.58972 23778 ft 440 kts 161°
2026-04-26 21:16 -25.19020 -64.57464 24131 ft 442 kts 161°
2026-04-26 21:16 -25.21785 -64.55946 24521 ft 444 kts 161°
2026-04-26 21:16 -25.24580 -64.54507 24884 ft 444 kts 164°
2026-04-26 21:16 -25.27426 -64.53172 25237 ft 445 kts 166°
2026-04-26 21:17 -25.30295 -64.51879 25588 ft 447 kts 166°
2026-04-26 21:17 -25.33189 -64.50585 25944 ft 450 kts 166°
2026-04-26 21:17 -25.36061 -64.49292 26273 ft 453 kts 166°
2026-04-26 21:17 -25.38978 -64.47965 26625 ft 455 kts 166°
2026-04-26 21:18 -25.41914 -64.46618 26968 ft 458 kts 166°
2026-04-26 21:18 -25.44860 -64.45258 27286 ft 461 kts 166°
2026-04-26 21:18 -25.47823 -64.43884 27613 ft 463 kts 166°
2026-04-26 21:18 -25.50806 -64.42499 27931 ft 466 kts 166°
2026-04-26 21:19 -25.53801 -64.41108 28243 ft 468 kts 166°
2026-04-26 21:19 -25.56815 -64.39707 28553 ft 471 kts 166°
2026-04-26 21:19 -25.59798 -64.38320 28862 ft 473 kts 166°
2026-04-26 21:19 -25.62842 -64.36905 29158 ft 475 kts 166°
2026-04-26 21:20 -25.65896 -64.35483 29449 ft 478 kts 166°
2026-04-26 21:20 -25.68968 -64.34054 29733 ft 480 kts 166°
2026-04-26 21:20 -25.72054 -64.32617 30018 ft 482 kts 166°
2026-04-26 21:20 -25.75154 -64.31172 30256 ft 484 kts 166°
2026-04-26 21:21 -25.78268 -64.29720 30491 ft 486 kts 166°
2026-04-26 21:21 -25.81350 -64.28282 30723 ft 488 kts 166°
2026-04-26 21:21 -25.84484 -64.26818 30967 ft 489 kts 166°
2026-04-26 21:21 -25.87625 -64.25350 31207 ft 491 kts 166°
2026-04-26 21:22 -25.90776 -64.23877 31448 ft 492 kts 166°
2026-04-26 21:22 -25.93932 -64.22401 31737 ft 492 kts 166°
2026-04-26 21:22 -25.97078 -64.20927 32094 ft 490 kts 166°
2026-04-26 21:23 -26.03332 -64.17995 32853 ft 486 kts 167°
2026-04-26 21:23 -26.06441 -64.16538 33177 ft 485 kts 167°
2026-04-26 21:23 -26.09508 -64.15102 33487 ft 484 kts 167°
2026-04-26 21:23 -26.12596 -64.13583 33835 ft 487 kts 164°
2026-04-26 21:24 -26.15628 -64.11885 34155 ft 488 kts 162°
2026-04-26 21:24 -26.18636 -64.10125 34406 ft 488 kts 162°
2026-04-26 21:24 -26.21658 -64.08381 34606 ft 489 kts 162°
2026-04-26 21:24 -26.24680 -64.06669 34811 ft 489 kts 163°
2026-04-26 21:25 -26.27713 -64.04962 35062 ft 489 kts 163°
2026-04-26 21:25 -26.30749 -64.03255 35310 ft 488 kts 163°
2026-04-26 21:25 -26.33741 -64.01572 35507 ft 489 kts 163°
2026-04-26 21:25 -26.36781 -63.99860 35713 ft 490 kts 163°
2026-04-26 21:26 -26.39819 -63.98146 35938 ft 490 kts 163°
2026-04-26 21:26 -26.42858 -63.96428 36166 ft 490 kts 163°
2026-04-26 21:26 -26.45896 -63.94710 36378 ft 490 kts 163°
2026-04-26 21:26 -26.48938 -63.92989 36576 ft 490 kts 163°
2026-04-26 21:27 -26.51980 -63.91267 36780 ft 490 kts 163°
2026-04-26 21:27 -26.55024 -63.89542 36964 ft 491 kts 163°
2026-04-26 21:27 -26.61148 -63.86071 36983 ft 494 kts 163°
2026-04-26 21:28 -26.67204 -63.82628 36970 ft 489 kts 163°
2026-04-26 21:28 -26.73253 -63.79187 36975 ft 487 kts 163°
2026-04-26 21:29 -26.79274 -63.75747 36979 ft 485 kts 163°
2026-04-26 21:29 -26.85278 -63.72314 36982 ft 484 kts 164°
2026-04-26 21:30 -26.91237 -63.68903 36987 ft 485 kts 164°
2026-04-26 21:30 -26.96232 -63.66040 36988 ft 486 kts 164°
2026-04-26 21:31 -27.03285 -63.61992 36989 ft 489 kts 164°
2026-04-26 21:31 -27.08320 -63.59087 36989 ft 491 kts 164°
2026-04-26 21:32 -27.15392 -63.54996 36987 ft 493 kts 164°
2026-04-26 21:32 -27.21500 -63.51455 36987 ft 495 kts 164°
2026-04-26 21:33 -27.27624 -63.47902 36990 ft 496 kts 164°
2026-04-26 21:33 -27.32708 -63.44950 36984 ft 496 kts 164°
2026-04-26 21:34 -27.39838 -63.40803 36990 ft 495 kts 164°
2026-04-26 21:34 -27.45957 -63.37240 36990 ft 495 kts 164°
2026-04-26 21:35 -27.52063 -63.33681 36988 ft 494 kts 164°
2026-04-26 21:35 -27.57127 -63.30726 36990 ft 493 kts 164°
2026-04-26 21:36 -27.63209 -63.27173 36990 ft 492 kts 165°
2026-04-26 21:36 -27.69278 -63.23624 36988 ft 491 kts 165°
2026-04-26 21:37 -27.76319 -63.19500 36991 ft 490 kts 165°
2026-04-26 21:37 -27.81349 -63.16551 36990 ft 490 kts 165°
2026-04-26 21:38 -27.87400 -63.12999 36995 ft 490 kts 165°
2026-04-26 21:38 -27.93453 -63.09442 36998 ft 491 kts 165°
2026-04-26 21:39 -27.99479 -63.05895 37004 ft 492 kts 165°
2026-04-26 21:39 -28.05558 -63.02313 37007 ft 493 kts 165°
2026-04-26 21:40 -28.11655 -62.98716 37008 ft 495 kts 165°
2026-04-26 21:40 -28.17771 -62.95103 37012 ft 497 kts 165°
2026-04-26 21:41 -28.23866 -62.91496 37015 ft 498 kts 165°
2026-04-26 21:41 -28.30019 -62.87851 37017 ft 500 kts 165°
2026-04-26 21:42 -28.36187 -62.84191 37018 ft 501 kts 165°
2026-04-26 21:42 -28.42366 -62.80520 37023 ft 501 kts 165°
2026-04-26 21:43 -28.48545 -62.76844 37030 ft 501 kts 165°
2026-04-26 21:43 -28.54684 -62.73187 37031 ft 501 kts 165°
2026-04-26 21:44 -28.60858 -62.69504 37039 ft 501 kts 165°
2026-04-26 21:44 -28.67028 -62.65819 37039 ft 501 kts 165°
2026-04-26 21:45 -28.73194 -62.62131 37037 ft 500 kts 165°
2026-04-26 21:45 -28.79310 -62.58469 37039 ft 500 kts 165°
2026-04-26 21:46 -28.85455 -62.54782 37048 ft 499 kts 165°
2026-04-26 21:46 -28.91599 -62.51071 37047 ft 499 kts 165°
2026-04-26 21:47 -28.97739 -62.47351 37053 ft 499 kts 165°
2026-04-26 21:47 -29.03835 -62.43654 37055 ft 500 kts 165°
2026-04-26 21:48 -29.09982 -62.39923 37062 ft 500 kts 165°
2026-04-26 21:48 -29.16129 -62.36188 37062 ft 501 kts 165°
2026-04-26 21:49 -29.22287 -62.32440 37066 ft 502 kts 165°
2026-04-26 21:49 -29.28409 -62.28709 37070 ft 502 kts 165°
2026-04-26 21:50 -29.34584 -62.24941 37071 ft 503 kts 165°
2026-04-26 21:50 -29.40763 -62.21164 37074 ft 504 kts 165°
2026-04-26 21:51 -29.46950 -62.17377 37070 ft 504 kts 165°
2026-04-26 21:51 -29.53094 -62.13612 37072 ft 504 kts 165°
2026-04-26 21:52 -29.59279 -62.09815 37078 ft 504 kts 165°
2026-04-26 21:52 -29.65460 -62.06016 37080 ft 504 kts 165°
2026-04-26 21:53 -29.71640 -62.02213 37080 ft 503 kts 165°
2026-04-26 21:53 -29.77769 -61.98435 37090 ft 503 kts 165°
2026-04-26 21:54 -29.83933 -61.94630 37077 ft 502 kts 165°
2026-04-26 21:54 -29.90173 -61.91329 37080 ft 481 kts 175°
2026-04-26 21:55 -29.96526 -61.89041 37084 ft 477 kts 177°
2026-04-26 21:55 -30.02833 -61.86836 37088 ft 477 kts 177°
2026-04-26 21:56 -30.09180 -61.84552 37092 ft 478 kts 176°
2026-04-26 21:56 -30.15521 -61.82230 37091 ft 478 kts 176°
2026-04-26 21:57 -30.21865 -61.79896 37088 ft 478 kts 176°
2026-04-26 21:57 -30.28163 -61.77579 37092 ft 478 kts 176°
2026-04-26 21:58 -30.34506 -61.75245 37091 ft 478 kts 176°
2026-04-26 21:58 -30.40846 -61.72908 37091 ft 478 kts 176°
2026-04-26 21:59 -30.47146 -61.70583 37094 ft 478 kts 176°
2026-04-26 21:59 -30.53483 -61.68241 37098 ft 478 kts 175°
2026-04-26 22:00 -30.59818 -61.65899 37099 ft 478 kts 175°
2026-04-26 22:00 -30.66150 -61.63564 37098 ft 477 kts 175°
2026-04-26 22:01 -30.72481 -61.61228 37098 ft 477 kts 175°
2026-04-26 22:01 -30.78767 -61.58903 37096 ft 477 kts 175°
2026-04-26 22:02 -30.85091 -61.56560 37099 ft 477 kts 175°
2026-04-26 22:02 -30.91413 -61.54214 37102 ft 477 kts 175°
2026-04-26 22:03 -30.97735 -61.51866 37101 ft 477 kts 175°
2026-04-26 22:03 -31.04009 -61.49532 37097 ft 476 kts 175°
2026-04-26 22:04 -31.10318 -61.47180 37096 ft 476 kts 175°
2026-04-26 22:04 -31.16629 -61.44827 37099 ft 476 kts 175°
2026-04-26 22:05 -31.22934 -61.42471 37101 ft 476 kts 175°
2026-04-26 22:05 -31.29234 -61.40114 37095 ft 475 kts 175°
2026-04-26 22:06 -31.35489 -61.37764 37093 ft 475 kts 175°
2026-04-26 22:06 -31.41795 -61.35382 36760 ft 477 kts 174°
2026-04-26 22:07 -31.44942 -61.34187 36512 ft 473 kts 174°
2026-04-26 22:07 -31.48054 -61.32919 36261 ft 478 kts 169°
2026-04-26 22:07 -31.51071 -61.31145 36024 ft 489 kts 162°
2026-04-26 22:07 -31.54032 -61.29173 35799 ft 490 kts 161°
2026-04-26 22:08 -31.56942 -61.27187 35565 ft 490 kts 161°
2026-04-26 22:08 -31.59885 -61.25170 35341 ft 490 kts 161°
2026-04-26 22:08 -31.62831 -61.23170 35106 ft 489 kts 161°
2026-04-26 22:08 -31.65782 -61.21196 34879 ft 487 kts 161°
2026-04-26 22:09 -31.68728 -61.19235 34652 ft 486 kts 161°
2026-04-26 22:09 -31.71670 -61.17279 34424 ft 485 kts 161°
2026-04-26 22:09 -31.74600 -61.15327 34192 ft 483 kts 161°
2026-04-26 22:09 -31.77513 -61.13382 33949 ft 481 kts 161°
2026-04-26 22:10 -31.80415 -61.11439 33675 ft 478 kts 161°
2026-04-26 22:10 -31.83255 -61.09533 33425 ft 474 kts 161°
2026-04-26 22:10 -31.86107 -61.07617 33166 ft 470 kts 161°
2026-04-26 22:10 -31.88924 -61.05721 33086 ft 463 kts 161°
2026-04-26 22:11 -31.94504 -61.01972 33097 ft 463 kts 161°
2026-04-26 22:11 -32.00114 -60.98209 33090 ft 465 kts 161°
2026-04-26 22:12 -32.05733 -60.94423 33083 ft 465 kts 161°
2026-04-26 22:12 -32.11344 -60.90635 33089 ft 464 kts 161°
2026-04-26 22:13 -32.16909 -60.86871 33070 ft 464 kts 161°
2026-04-26 22:13 -32.22495 -60.83087 33077 ft 463 kts 161°
2026-04-26 22:14 -32.28072 -60.79306 33077 ft 462 kts 161°
2026-04-26 22:14 -32.33641 -60.75525 33080 ft 461 kts 161°
2026-04-26 22:15 -32.39200 -60.71746 33074 ft 461 kts 161°
2026-04-26 22:15 -32.44758 -60.67962 33077 ft 461 kts 161°
2026-04-26 22:16 -32.50185 -60.63909 33082 ft 470 kts 155°
2026-04-26 22:16 -32.55454 -60.59280 33080 ft 473 kts 154°
2026-04-26 22:17 -32.60716 -60.54576 33077 ft 473 kts 154°
2026-04-26 22:17 -32.66000 -60.49911 33082 ft 474 kts 154°
2026-04-26 22:18 -32.71310 -60.45263 33081 ft 474 kts 154°
2026-04-26 22:18 -32.76592 -60.40644 33082 ft 475 kts 154°
2026-04-26 22:19 -32.81914 -60.35984 33073 ft 475 kts 154°
2026-04-26 22:19 -32.87236 -60.31313 33069 ft 476 kts 154°
2026-04-26 22:20 -32.92561 -60.26631 33068 ft 476 kts 154°
2026-04-26 22:20 -32.97879 -60.21948 33066 ft 476 kts 154°
2026-04-26 22:21 -33.03161 -60.17290 32778 ft 474 kts 154°
2026-04-26 22:21 -33.05799 -60.14956 32617 ft 470 kts 154°
2026-04-26 22:21 -33.08418 -60.12639 32495 ft 469 kts 154°
2026-04-26 22:22 -33.11042 -60.10320 32373 ft 469 kts 154°
2026-04-26 22:22 -33.13666 -60.08001 32254 ft 470 kts 154°
2026-04-26 22:22 -33.16288 -60.05682 32128 ft 470 kts 154°
2026-04-26 22:22 -33.18912 -60.03358 32010 ft 470 kts 154°
2026-04-26 22:23 -33.21533 -60.01034 31853 ft 468 kts 154°
2026-04-26 22:23 -33.24129 -59.98725 31493 ft 463 kts 154°
2026-04-26 22:23 -33.26699 -59.96436 31095 ft 459 kts 154°
2026-04-26 22:23 -33.29246 -59.94169 30685 ft 456 kts 154°
2026-04-26 22:24 -33.31783 -59.91911 30278 ft 453 kts 154°
2026-04-26 22:24 -33.34271 -59.89698 29811 ft 451 kts 154°
2026-04-26 22:24 -33.36775 -59.87468 29350 ft 447 kts 154°
2026-04-26 22:24 -33.39259 -59.85253 28904 ft 444 kts 154°
2026-04-26 22:25 -33.41723 -59.83054 28468 ft 440 kts 154°
2026-04-26 22:25 -33.44164 -59.80874 28043 ft 436 kts 154°
2026-04-26 22:25 -33.46585 -59.78710 27622 ft 433 kts 154°
2026-04-26 22:25 -33.48986 -59.76564 27208 ft 429 kts 154°
2026-04-26 22:26 -33.51372 -59.74429 26794 ft 426 kts 154°
2026-04-26 22:26 -33.53738 -59.72312 26385 ft 423 kts 154°
2026-04-26 22:26 -33.56085 -59.70210 25985 ft 420 kts 154°
2026-04-26 22:26 -33.58420 -59.68117 25566 ft 417 kts 154°
2026-04-26 22:27 -33.60707 -59.66066 25160 ft 415 kts 154°
2026-04-26 22:27 -33.63011 -59.63999 24756 ft 412 kts 154°
2026-04-26 22:27 -33.65303 -59.61941 24346 ft 411 kts 154°
2026-04-26 22:27 -33.67583 -59.59892 23945 ft 409 kts 154°
2026-04-26 22:28 -33.69859 -59.57847 23512 ft 407 kts 154°
2026-04-26 22:28 -33.72120 -59.55811 23054 ft 405 kts 154°
2026-04-26 22:28 -33.74364 -59.53788 22631 ft 402 kts 154°
2026-04-26 22:28 -33.76592 -59.51779 22223 ft 399 kts 154°
2026-04-26 22:29 -33.78799 -59.49786 21821 ft 395 kts 154°
2026-04-26 22:29 -33.80990 -59.47807 21424 ft 392 kts 154°
2026-04-26 22:29 -33.83164 -59.45844 21032 ft 389 kts 154°
2026-04-26 22:29 -33.85319 -59.43896 20641 ft 386 kts 154°
2026-04-26 22:30 -33.87429 -59.41989 20256 ft 384 kts 154°
2026-04-26 22:30 -33.89560 -59.40061 19874 ft 381 kts 154°
2026-04-26 22:30 -33.91671 -59.38149 19494 ft 379 kts 154°
2026-04-26 22:30 -33.93772 -59.36247 19115 ft 377 kts 154°
2026-04-26 22:31 -33.95862 -59.34353 18729 ft 375 kts 154°
2026-04-26 22:31 -33.97938 -59.32470 18338 ft 373 kts 154°
2026-04-26 22:31 -34.00004 -59.30595 17915 ft 371 kts 154°
2026-04-26 22:31 -34.02063 -59.28726 17512 ft 369 kts 154°
2026-04-26 22:32 -34.04104 -59.26870 17119 ft 366 kts 154°
2026-04-26 22:32 -34.06126 -59.25030 16747 ft 363 kts 153°
2026-04-26 22:32 -34.08131 -59.23204 16376 ft 359 kts 153°
2026-04-26 22:32 -34.10091 -59.21420 16012 ft 357 kts 153°
2026-04-26 22:33 -34.12063 -59.19623 15649 ft 353 kts 153°
2026-04-26 22:33 -34.15960 -59.16096 14941 ft 344 kts 156°
2026-04-26 22:33 -34.18075 -59.15027 14590 ft 319 kts 180°
2026-04-26 22:34 -34.20183 -59.15074 14306 ft 292 kts 203°
2026-04-26 22:34 -34.21958 -59.16050 14138 ft 273 kts 217°
2026-04-26 22:34 -34.23523 -59.17274 14022 ft 263 kts 219°
2026-04-26 22:34 -34.25008 -59.18494 13953 ft 254 kts 220°
2026-04-26 22:35 -34.26432 -59.19673 13909 ft 249 kts 220°
2026-04-26 22:35 -34.27878 -59.20883 13701 ft 264 kts 220°
2026-04-26 22:35 -34.29632 -59.21824 13427 ft 294 kts 194°
2026-04-26 22:35 -34.31730 -59.21505 13182 ft 320 kts 164°
2026-04-26 22:36 -34.33559 -59.19880 12905 ft 338 kts 134°
2026-04-26 22:36 -34.34645 -59.17329 12677 ft 345 kts 115°
2026-04-26 22:36 -34.35607 -59.14694 12411 ft 340 kts 122°
2026-04-26 22:36 -34.36725 -59.12183 12176 ft 337 kts 124°
2026-04-26 22:37 -34.37866 -59.09786 11862 ft 330 kts 125°
2026-04-26 22:37 -34.39021 -59.07408 11544 ft 326 kts 125°
2026-04-26 22:37 -34.40170 -59.05052 11215 ft 324 kts 125°
2026-04-26 22:37 -34.41309 -59.02713 10898 ft 321 kts 124°
2026-04-26 22:38 -34.42437 -59.00391 10573 ft 319 kts 124°
2026-04-26 22:38 -34.43553 -58.98086 10285 ft 315 kts 124°
2026-04-26 22:38 -34.44640 -58.95834 10176 ft 305 kts 124°
2026-04-26 22:38 -34.45694 -58.93644 10036 ft 297 kts 124°
2026-04-26 22:39 -34.46720 -58.91514 9887 ft 289 kts 124°
2026-04-26 22:39 -34.47730 -58.89416 9617 ft 287 kts 124°
2026-04-26 22:39 -34.48731 -58.87336 9342 ft 284 kts 124°
2026-04-26 22:39 -34.49708 -58.85306 9100 ft 281 kts 124°
2026-04-26 22:40 -34.50690 -58.83262 8837 ft 279 kts 124°
2026-04-26 22:40 -34.51662 -58.81238 8581 ft 276 kts 124°
2026-04-26 22:40 -34.52622 -58.79237 8334 ft 274 kts 124°
2026-04-26 22:40 -34.53576 -58.77249 8084 ft 272 kts 124°
2026-04-26 22:41 -34.54519 -58.75281 7852 ft 268 kts 124°
2026-04-26 22:41 -34.55454 -58.73330 7603 ft 267 kts 125°
2026-04-26 22:41 -34.56383 -58.71390 7359 ft 265 kts 125°
2026-04-26 22:41 -34.57295 -58.69484 7102 ft 264 kts 125°
2026-04-26 22:42 -34.58214 -58.67562 6838 ft 263 kts 125°
2026-04-26 22:42 -34.59133 -58.65641 6577 ft 263 kts 125°
2026-04-26 22:42 -34.60048 -58.63725 6318 ft 262 kts 125°
2026-04-26 22:42 -34.60960 -58.61813 6034 ft 262 kts 124°
2026-04-26 22:43 -34.61709 -58.59795 5851 ft 265 kts 113°
2026-04-26 22:43 -34.62287 -58.57646 5681 ft 271 kts 111°
2026-04-26 22:43 -34.62845 -58.55437 5499 ft 276 kts 110°
2026-04-26 22:43 -34.63410 -58.53197 5309 ft 277 kts 111°
2026-04-26 22:44 -34.63968 -58.51013 5100 ft 265 kts 111°
2026-04-26 22:44 -34.64509 -58.48922 4921 ft 254 kts 111°
2026-04-26 22:44 -34.65040 -58.46892 4756 ft 250 kts 111°
2026-04-26 22:44 -34.65561 -58.44914 4592 ft 249 kts 111°
2026-04-26 22:45 -34.66090 -58.42912 4421 ft 249 kts 111°
2026-04-26 22:45 -34.66626 -58.40890 4274 ft 254 kts 111°
2026-04-26 22:45 -34.67169 -58.38842 4094 ft 253 kts 111°
2026-04-26 22:45 -34.67695 -58.36850 3904 ft 243 kts 111°
2026-04-26 22:46 -34.68200 -58.34941 3740 ft 232 kts 110°
2026-04-26 22:46 -34.68683 -58.33113 3596 ft 221 kts 110°
2026-04-26 22:46 -34.69137 -58.31391 3487 ft 207 kts 111°
2026-04-26 22:46 -34.69565 -58.29773 3383 ft 202 kts 111°
2026-04-26 22:47 -34.69990 -58.28163 3254 ft 199 kts 110°
2026-04-26 22:47 -34.70354 -58.26538 3102 ft 202 kts 95°
2026-04-26 22:47 -34.69976 -58.24914 2961 ft 203 kts 51°
2026-04-26 22:47 -34.68845 -58.23977 2814 ft 198 kts
2026-04-26 22:48 -34.67500 -58.23789 2668 ft 191 kts 359°
2026-04-26 22:48 -34.66223 -58.23935 2482 ft 179 kts 333°
2026-04-26 22:48 -34.65286 -58.24809 2363 ft 167 kts 301°
2026-04-26 22:48 -34.64636 -58.25970 2268 ft 163 kts 301°
2026-04-26 22:49 -34.64011 -58.27074 2155 ft 155 kts 300°
2026-04-26 22:49 -34.63402 -58.28160 2070 ft 157 kts 300°
2026-04-26 22:49 -34.62803 -58.29229 2002 ft 150 kts 299°
2026-04-26 22:49 -34.62223 -58.30268 1870 ft 146 kts 299°
2026-04-26 22:50 -34.61655 -58.31286 1769 ft 146 kts 299°
2026-04-26 22:50 -34.61085 -58.32311 1601 ft 148 kts 300°
2026-04-26 22:50 -34.60513 -58.33338 1434 ft 146 kts 300°
2026-04-26 22:50 -34.59938 -58.34371 1261 ft 149 kts 300°
2026-04-26 22:51 -34.59357 -58.35413 1054 ft 149 kts 300°
2026-04-26 22:51 -34.58787 -58.36435 886 ft 147 kts 300°
2026-04-26 22:51 -34.58212 -58.37444 738 ft 146 kts 301°
2026-04-26 22:51 -34.57646 -58.38466 508 ft 145 kts 299°
2026-04-26 22:52 -34.57087 -58.39464 311 ft 141 kts 300°
2026-04-26 22:52 -34.56550 -58.40456 105 ft 141 kts 300°
2026-04-26 22:52 -34.56018 -58.41408 25 ft 121 kts 303°
2026-04-26 22:52 -34.55667 -58.42037 26 ft 59 kts 304°
2026-04-26 22:53 -34.55515 -58.42310 28 ft 32 kts 303°
2026-04-26 22:53 -34.55419 -58.42484 28 ft 10 kts 306°
2026-04-26 22:53 -34.55363 -58.42481 29 ft 10 kts 65°
2026-04-26 22:53 -34.55366 -58.42398 27 ft 10 kts 104°
2026-04-26 22:54 -34.55396 -58.42328 27 ft 10 kts 127°
2026-04-26 22:54 -34.55436 -58.42265 29 ft 9 kts 127°
2026-04-26 22:54 -34.55474 -58.42203 26 ft 9 kts 127°
2026-04-26 22:54 -34.55511 -58.42143 29 ft 9 kts 127°
2026-04-26 22:55 -34.55547 -58.42084 27 ft 9 kts 126°
2026-04-26 22:55 -34.55581 -58.42027 31 ft 8 kts 126°
2026-04-26 22:55 -34.55615 -58.41972 27 ft 8 kts 125°
2026-04-26 22:55 -34.55647 -58.41912 28 ft 10 kts 124°
2026-04-26 22:56 -34.55695 -58.41826 29 ft 12 kts 124°
2026-04-26 22:56 -34.55725 -58.41773 28 ft 5 kts 122°
2026-04-26 22:56 -34.55726 -58.41771 28 ft 0 kts 120°
2026-04-26 22:57 -34.55737 -58.41747 28 ft 8 kts 117°
2026-04-26 22:58 -34.55773 -58.41661 26 ft 15 kts 117°
2026-04-26 22:58 -34.55825 -58.41536 26 ft 17 kts 117°
2026-04-26 22:58 -34.55878 -58.41411 28 ft 15 kts 116°
2026-04-26 22:58 -34.55901 -58.41309 26 ft 12 kts 61°
2026-04-26 22:59 -34.55835 -58.41279 29 ft 10 kts 321°
2026-04-26 22:59 -34.55825 -58.41300 27 ft 0 kts 301°
2026-04-26 22:59 -34.55821 -58.41303 27 ft 3 kts 322°
2026-04-26 22:59 -34.55787 -58.41286 28 ft 5 kts 38°
2026-04-26 23:00 -34.55782 -58.41282 28 ft 0 kts 38°